1496872801.01,41317,18.25,73946.3,0.57,-4.57,-4.73,0,*49
1496872802.21,41318,18.25,73940.0,0.57,-4.57,-4.73,0,*46
1496872803.41,41319,18.25,73946.5,0.57,-4.61,-4.69,0,*49
1496872804.62,41320,18.25,73946.0,0.57,-4.57,-4.69,0,*46
1496872805.83,41321,18.25,73942.8,0.59,-4.57,-4.57,0,*44
1496872807.03,41322,18.25,73946.8,0.59,-4.53,-4.65,0,*42
1496872808.24,41323,18.25,73946.5,0.59,-4.57,-4.65,0,*47
1496872809.44,41324,18.25,73946.5,0.59,-4.65,-4.65,0,*41
1496872810.65,41325,18.25,73944.3,0.59,-4.65,-4.65,0,*40
1496872811.85,41326,18.25,73944.5,0.59,-4.65,-4.65,0,*43
1496872813.1,41327,18.25,73944.5,0.55,-4.69,-4.69,0,*4E
1496872814.32,41328,18.25,73946.5,0.57,-4.69,-4.69,0,*43
1496872815.54,41329,18.25,73944.3,0.57,-4.69,-4.73,0,*49
1496872816.76,41330,18.25,73946.0,0.57,-4.81,-4.85,0,*4E
1496872817.98,41331,18.25,73946.5,0.57,-4.81,-4.85,0,*4F
1496872819.2,41332,18.25,73946.3,0.57,-4.73,-4.73,0,*48
1496872820.42,41333,18.25,73944.3,0.57,-4.69,-4.73,0,*42
1496872821.67,41334,18.25,73944.8,0.55,-4.69,-4.73,0,*47
1496872822.89,41335,18.25,73946.0,0.57,-4.69,-4.73,0,*44
1496872824.13,41336,18.25,73944.3,0.55,-4.69,-4.73,0,*45
1496872825.35,41337,18.25,73942.8,0.57,-4.69,-4.73,0,*46
1496872826.59,41338,18.25,73942.8,0.55,-4.69,-4.73,0,*4B
1496872827.84,41339,18.25,73946.0,0.55,-4.69,-4.73,0,*4A
1496872829.09,41340,18.25,73944.3,0.55,-4.69,-4.81,0,*49
1496872830.33,41341,18.25,73944.5,0.55,-4.69,-4.73,0,*45
1496872831.58,41342,18.25,73940.3,0.55,-4.69,-4.73,0,*46
1496872832.82,41343,18.25,73948.5,0.55,-4.69,-4.73,0,*47
1496872834.07,41344,18.25,73940.8,0.55,-4.73,-4.73,0,*4B
1496872835.32,41345,18.25,73944.0,0.55,-4.69,-4.81,0,*4C
1496872836.52,41346,18.25,73944.5,0.57,-4.61,-4.81,0,*45
1496872837.74,41347,18.25,73942.5,0.57,-4.69,-4.73,0,*41
1496872838.96,41348,18.25,73946.5,0.55,-4.61,-4.73,0,*44
1496872840.19,41349,18.25,73944.5,0.55,-4.61,-4.73,0,*45
1496872841.42,41350,18.25,73944.5,0.55,-4.61,-4.73,0,*4D
1496872842.64,41351,18.25,73944.5,0.55,-4.61,-4.73,0,*4C
1496872843.87,41352,18.25,73944.0,0.55,-4.61,-4.73,0,*4F
1496872845.08,41353,18.25,73944.3,0.55,-4.61,-4.61,0,*4D
1496872846.31,41354,18.25,73944.3,0.55,-4.57,-4.69,0,*47
1496872847.54,41355,18.25,73946.3,0.55,-4.61,-4.69,0,*43
1496872848.74,41356,18.25,73944.5,0.55,-4.61,-4.61,0,*48
1496872849.98,41357,18.25,73942.8,0.55,-4.57,-4.69,0,*44
1496872851.17,41358,18.25,73944.8,0.53,-4.65,-4.73,0,*47
1496872852.38,41359,18.25,73944.0,0.53,-4.65,-4.73,0,*46
1496872853.58,41360,18.25,73944.5,0.53,-4.65,-4.73,0,*4C
1496872854.75,41361,18.25,73946.0,0.53,-4.61,-4.65,0,*4E
1496872855.93,41362,18.25,73946.3,0.53,-4.61,-4.65,0,*4D
1496872857.11,41363,18.25,73944.5,0.53,-4.61,-4.65,0,*4C
1496872858.29,41364,18.25,73946.5,0.53,-4.61,-4.65,0,*4B
1496872859.47,41365,18.25,73942.8,0.53,-4.61,-4.65,0,*4A
1496872860.64,41366,18.25,73946.0,0.53,-4.61,-4.65,0,*49
1496872861.82,41367,18.25,73940.5,0.53,-4.65,-4.65,0,*4C
1496872863.0,41368,18.25,73940.8,0.53,-4.61,-4.65,0,*47
1496872864.2,41369,18.25,73942.8,0.53,-4.61,-4.73,0,*41
1496872865.38,41370,18.25,73944.8,0.53,-4.65,-4.65,0,*4A
1496872866.56,41371,18.25,73942.5,0.53,-4.61,-4.65,0,*4F
1496872867.76,41372,18.25,73942.5,0.53,-4.61,-4.73,0,*4B
1496872868.94,41373,18.25,73942.8,0.53,-4.61,-4.65,0,*4D
1496872870.11,41374,18.25,73942.8,0.53,-4.53,-4.53,0,*4E
1496872871.29,41375,18.25,73942.8,0.53,-4.61,-4.61,0,*4F
1496872872.47,41376,18.25,73944.8,0.53,-4.65,-4.61,0,*48
1496872873.65,41377,18.25,73944.8,0.53,-4.61,-4.61,0,*4D
1496872874.82,41378,18.25,73944.0,0.53,-4.61,-4.61,0,*42
1496872876.0,41379,18.25,73940.5,0.53,-4.53,-4.61,0,*42
1496872877.18,41380,18.25,73944.5,0.53,-4.61,-4.61,0,*45
1496872878.38,41381,18.25,73944.8,0.51,-4.53,-4.53,0,*46
1496872879.59,41382,18.25,73942.0,0.51,-4.61,-4.61,0,*45
1496872880.76,41383,18.25,73944.3,0.53,-4.53,-4.61,0,*47
1496872881.94,41384,18.25,73944.0,0.53,-4.53,-4.53,0,*41
1496872883.14,41385,18.25,73944.3,0.51,-4.53,-4.61,0,*43
1496872884.35,41386,18.25,73940.5,0.51,-4.61,-4.53,0,*40
1496872885.53,41387,18.25,73944.8,0.53,-4.53,-4.61,0,*43
1496872886.73,41388,18.25,73944.3,0.51,-4.53,-4.53,0,*4F
1496872887.94,41389,18.25,73946.8,0.51,-4.61,-4.53,0,*4F
1496872889.15,41390,18.25,73944.8,0.51,-4.53,-4.61,0,*47
1496872890.35,41391,18.25,73944.5,0.51,-4.53,-4.53,0,*47
1496872891.56,41392,18.25,73946.5,0.51,-4.61,-4.53,0,*45
1496872892.76,41393,18.25,73940.3,0.51,-4.53,-4.49,0,*4E
1496872893.94,41394,18.25,73944.0,0.53,-4.53,-4.61,0,*41
1496872895.15,41395,18.25,73944.5,0.51,-4.61,-4.61,0,*43
1496872896.35,41396,18.25,73944.0,0.51,-4.61,-4.53,0,*41
1496872897.53,41397,18.25,73946.8,0.53,-4.49,-4.61,0,*49
1496872898.73,41398,18.25,73946.5,0.51,-4.53,-4.53,0,*4E
1496872899.94,41399,18.25,73942.0,0.51,-4.49,-4.53,0,*44
1496872901.14,41400,18.25,73946.8,0.51,-4.49,-4.61,0,*42
1496872902.34,41401,18.25,73940.0,0.51,-4.53,-4.49,0,*42
1496872903.55,41402,18.25,73942.3,0.51,-4.49,-4.53,0,*41
1496872904.75,41403,18.25,73942.8,0.51,-4.49,-4.49,0,*4B
1496872905.95,41404,18.25,73942.5,0.51,-4.49,-4.53,0,*47
1496872907.16,41405,18.25,73944.3,0.51,-4.49,-4.53,0,*46
1496872908.33,41406,18.25,73942.3,0.53,-4.49,-4.49,0,*4C
1496872909.5,41407,18.25,73940.5,0.53,-4.49,-4.49,0,*4D
1496872910.71,41408,18.25,73944.8,0.51,-4.49,-4.53,0,*4B
1496872911.91,41409,18.25,73942.0,0.51,-4.53,-4.53,0,*41
1496872913.12,41410,18.25,73940.8,0.51,-4.41,-4.53,0,*4A
1496872914.33,41411,18.25,73944.8,0.51,-4.41,-4.37,0,*49
1496872915.53,41412,18.25,73940.8,0.51,-4.41,-4.49,0,*43
1496872916.74,41413,18.25,73940.5,0.51,-4.41,-4.41,0,*4A
1496872917.94,41414,18.25,73944.8,0.51,-4.41,-4.49,0,*45
1496872919.15,41415,18.25,73942.8,0.51,-4.41,-4.49,0,*44
1496872920.35,41416,18.25,73940.8,0.51,-4.37,-4.49,0,*46
1496872921.55,41417,18.25,73942.8,0.51,-4.41,-4.49,0,*46
1496872922.76,41418,18.25,73940.8,0.51,-4.41,-4.49,0,*49
1496872923.93,41419,18.25,73944.5,0.53,-4.41,-4.49,0,*4A
1496872925.13,41420,18.25,73944.3,0.51,-4.41,-4.49,0,*42
1496872926.34,41421,18.25,73944.0,0.51,-4.41,-4.49,0,*43
1496872927.54,41422,18.25,73944.3,0.51,-4.41,-4.41,0,*48
1496872928.75,41423,18.25,73940.8,0.51,-4.37,-4.41,0,*48
1496872929.92,41424,18.25,73940.8,0.53,-4.37,-4.41,0,*4D
1496872931.12,41425,18.25,73944.3,0.51,-4.37,-4.41,0,*4E
1496872932.33,41426,18.25,73942.3,0.51,-4.41,-4.37,0,*4D
1496872933.53,41427,18.25,73946.3,0.51,-4.37,-4.41,0,*4C
1496872934.73,41428,18.25,73940.8,0.51,-4.37,-4.49,0,*4B
1496872935.93,41429,18.25,73944.3,0.51,-4.37,-4.49,0,*4A
1496872937.14,41430,18.25,73940.0,0.51,-4.29,-4.29,0,*4B
1496872938.35,41431,18.25,73942.5,0.51,-4.29,-4.37,0,*45
1496872939.56,41432,18.25,73942.5,0.51,-4.29,-4.37,0,*46
1496872940.77,41433,18.25,73944.5,0.51,-4.25,-4.29,0,*44
1496872941.98,41434,18.25,73940.3,0.51,-4.25,-4.29,0,*43
1496872943.19,41435,18.25,73942.8,0.51,-4.29,-4.37,0,*41
1496872944.41,41436,18.25,73940.3,0.51,-4.25,-4.37,0,*4E
1496872945.62,41437,18.25,73942.3,0.51,-4.29,-4.37,0,*43
1496872946.83,41438,18.25,73940.3,0.51,-4.25,-4.37,0,*40
1496872948.04,41439,18.25,73942.5,0.51,-4.29,-4.37,0,*4D
1496872949.25,41440,18.25,73940.3,0.51,-4.25,-4.37,0,*4F
1496872950.46,41441,18.25,73942.0,0.47,-4.33,-4.33,0,*4A
1496872951.67,41442,18.25,73942.0,0.47,-4.33,-4.41,0,*4C
1496872952.88,41443,18.25,73944.0,0.51,-4.25,-4.37,0,*4C
1496872954.09,41444,18.25,73942.5,0.51,-4.25,-4.29,0,*44
1496872955.3,41445,18.25,73942.8,0.51,-4.25,-4.29,0,*45
1496872956.51,41446,18.25,73942.5,0.51,-4.29,-4.29,0,*4A
1496872957.73,41447,18.25,73942.5,0.51,-4.25,-4.37,0,*48
1496872958.93,41448,18.25,73942.0,0.51,-4.29,-4.37,0,*4B
1496872960.14,41449,18.25,73938.0,0.51,-4.29,-4.37,0,*4A
1496872961.32,41450,18.25,73940.3,0.53,-4.29,-4.37,0,*40
1496872962.53,41451,18.25,73942.0,0.51,-4.29,-4.37,0,*43
1496872963.75,41452,18.25,73942.8,0.51,-4.25,-4.37,0,*4C
1496872964.95,41453,18.25,73942.0,0.51,-4.29,-4.41,0,*40
1496872966.15,41454,18.25,73940.3,0.47,-4.41,-4.45,0,*4A
1496872967.36,41455,18.25,73940.3,0.47,-4.33,-4.45,0,*4E
1496872968.57,41456,18.25,73940.8,0.47,-4.29,-4.41,0,*42
1496872969.77,41457,18.25,73942.5,0.47,-4.33,-4.45,0,*4C
1496872970.95,41458,18.25,73942.0,0.53,-4.29,-4.41,0,*49
1496872972.16,41459,18.25,73946.0,0.51,-4.29,-4.41,0,*4A
1496872973.37,41460,18.25,73940.3,0.51,-4.29,-4.41,0,*40
1496872974.54,41461,18.25,73938.3,0.53,-4.29,-4.41,0,*43
1496872975.75,41462,18.25,73944.8,0.51,-4.29,-4.41,0,*42
1496872976.95,41463,18.25,73942.0,0.51,-4.37,-4.41,0,*4C
1496872978.15,41464,18.25,73942.5,0.51,-4.37,-4.49,0,*43
1496872979.36,41465,18.25,73942.5,0.51,-4.37,-4.41,0,*4A
1496872980.56,41466,18.25,73942.3,0.51,-4.41,-4.41,0,*48
1496872981.77,41467,18.25,73946.0,0.51,-4.29,-4.49,0,*4F
1496872982.97,41468,18.25,73940.8,0.51,-4.37,-4.41,0,*47
1496872984.18,41469,18.25,73944.3,0.47,-4.41,-4.57,0,*47
1496872985.38,41470,18.25,73942.3,0.47,-4.45,-4.45,0,*48
1496872986.58,41471,18.25,73940.8,0.47,-4.41,-4.53,0,*4A
1496872987.79,41472,18.25,73942.5,0.51,-4.37,-4.41,0,*4C
1496872988.99,41473,18.25,73946.0,0.51,-4.37,-4.41,0,*4D
1496872990.2,41474,18.25,73944.0,0.51,-4.29,-4.41,0,*45
1496872991.4,41475,18.25,73940.3,0.47,-4.41,-4.53,0,*4E
1496872992.61,41476,18.25,73940.3,0.47,-4.41,-4.53,0,*4D
1496872993.82,41477,18.25,73942.5,0.47,-4.41,-4.53,0,*4C
1496872995.03,41478,18.25,73944.5,0.47,-4.53,-4.57,0,*44
1496872996.23,41479,18.25,73942.3,0.47,-4.53,-4.57,0,*45
1496872997.44,41480,18.25,73942.5,0.47,-4.53,-4.57,0,*43
1496872998.64,41481,18.25,73942.3,0.51,-4.37,-4.49,0,*48
1496872999.84,41482,18.25,73940.5,0.47,-4.45,-4.45,0,*45
1496873001.05,41483,18.25,73940.5,0.47,-4.41,-4.53,0,*47
1496873002.25,41484,18.25,73940.8,0.47,-4.41,-4.45,0,*47
1496873003.43,41485,18.25,73942.8,0.45,-4.45,-4.57,0,*43
1496873004.63,41486,18.25,73942.0,0.47,-4.45,-4.53,0,*46
1496873005.83,41487,18.25,73942.3,0.47,-4.45,-4.53,0,*47
1496873007.04,41488,18.25,73940.3,0.47,-4.41,-4.57,0,*48
1496873008.25,41489,18.25,73942.8,0.47,-4.41,-4.53,0,*4D
1496873009.45,41490,18.25,73940.5,0.47,-4.41,-4.45,0,*42
1496873010.66,41491,18.25,73942.0,0.47,-4.41,-4.41,0,*47
1496873011.86,41492,18.25,73938.3,0.47,-4.41,-4.41,0,*44
1496873013.04,41493,18.25,73940.0,0.45,-4.41,-4.45,0,*43
1496873014.25,41494,18.25,73936.5,0.47,-4.41,-4.41,0,*42
1496873015.45,41495,18.25,73942.0,0.47,-4.29,-4.45,0,*49
1496873016.65,41496,18.25,73942.5,0.47,-4.45,-4.53,0,*47
1496873017.86,41497,18.25,73942.8,0.47,-4.41,-4.41,0,*41
1496873019.06,41498,18.25,73944.3,0.47,-4.29,-4.45,0,*44
1496873020.24,41499,18.25,73938.5,0.45,-4.41,-4.45,0,*49
1496873021.42,41500,18.25,73942.0,0.45,-4.41,-4.53,0,*4F
1496873022.62,41501,18.25,73940.3,0.47,-4.45,-4.53,0,*48
1496873023.8,41502,18.25,73942.8,0.45,-4.45,-4.53,0,*49
1496873025.01,41503,18.25,73938.5,0.47,-4.41,-4.53,0,*4E
1496873026.19,41504,18.25,73940.3,0.45,-4.45,-4.53,0,*4F
1496873027.37,41505,18.25,73942.5,0.45,-4.41,-4.45,0,*4D
1496873028.54,41506,18.25,73938.5,0.45,-4.45,-4.53,0,*4D
1496873029.75,41507,18.25,73940.3,0.47,-4.45,-4.53,0,*4E
1496873030.95,41508,18.25,73938.3,0.47,-4.45,-4.53,0,*41
1496873032.15,41509,18.25,73940.0,0.47,-4.45,-4.53,0,*40
1496873033.34,41510,18.25,73944.5,0.47,-4.45,-4.45,0,*4F
1496873034.55,41511,18.25,73942.5,0.47,-4.41,-4.45,0,*4A
1496873035.72,41512,18.25,73940.8,0.45,-4.45,-4.53,0,*48
1496873036.93,41513,18.25,73938.0,0.47,-4.45,-4.57,0,*4F
1496873038.13,41514,18.25,73942.3,0.47,-4.45,-4.57,0,*48
1496873039.31,41515,18.25,73940.5,0.45,-4.45,-4.53,0,*4F
1496873040.48,41516,18.25,73940.3,0.45,-4.53,-4.45,0,*4C
1496873041.68,41517,18.25,73942.8,0.47,-4.45,-4.53,0,*4F
1496873042.89,41518,18.25,73944.3,0.47,-4.41,-4.53,0,*44
1496873044.06,41519,18.25,73942.3,0.45,-4.45,-4.45,0,*44
1496873045.25,41520,18.25,73942.0,0.45,-4.41,-4.53,0,*4D
1496873046.44,41521,18.25,73942.0,0.47,-4.45,-4.45,0,*4D
1496873047.64,41522,18.25,73940.8,0.47,-4.45,-4.41,0,*4A
1496873048.82,41523,18.25,73942.5,0.45,-4.41,-4.45,0,*49
1496873050.0,41524,18.25,73940.8,0.45,-4.41,-4.41,0,*4A
1496873051.19,41525,18.25,73942.5,0.45,-4.33,-4.33,0,*4B
1496873052.4,41526,18.25,73942.0,0.47,-4.33,-4.41,0,*4F
1496873053.61,41527,18.25,73942.0,0.47,-4.33,-4.41,0,*4E
1496873054.79,41528,18.25,73942.0,0.45,-4.33,-4.33,0,*46
1496873056.0,41529,18.25,73940.0,0.47,-4.33,-4.33,0,*45
1496873057.21,41530,18.25,73940.3,0.47,-4.33,-4.33,0,*4D
1496873058.42,41531,18.25,73942.5,0.47,-4.29,-4.41,0,*42
1496873059.63,41532,18.25,73940.8,0.47,-4.33,-4.33,0,*4F
1496873060.81,41533,18.25,73940.5,0.45,-4.29,-4.41,0,*42
1496873062.02,41534,18.25,73942.5,0.47,-4.33,-4.41,0,*4C
1496873063.2,41535,18.25,73944.3,0.45,-4.29,-4.33,0,*41
1496873064.39,41536,18.25,73942.0,0.45,-4.25,-4.41,0,*4B
1496873065.57,41537,18.25,73940.8,0.45,-4.33,-4.33,0,*48
1496873066.78,41538,18.25,73942.5,0.47,-4.29,-4.41,0,*4B
1496873067.99,41539,18.25,73942.8,0.47,-4.33,-4.29,0,*4F
1496873069.18,41540,18.25,73944.3,0.45,-4.33,-4.33,0,*48
1496873070.38,41541,18.25,73940.3,0.47,-4.29,-4.33,0,*40
1496873071.59,41542,18.25,73942.8,0.47,-4.33,-4.33,0,*48
1496873072.77,41543,18.25,73944.3,0.45,-4.29,-4.33,0,*40
1496873073.98,41544,18.25,73942.0,0.47,-4.29,-4.41,0,*40
1496873075.19,41545,18.25,73940.5,0.47,-4.33,-4.33,0,*4F
1496873076.4,41546,18.25,73942.8,0.47,-4.29,-4.33,0,*47
1496873077.6,41547,18.25,73940.3,0.47,-4.29,-4.33,0,*46
1496873078.79,41548,18.25,73940.3,0.45,-4.33,-4.41,0,*45
1496873080.0,41549,18.25,73940.5,0.47,-4.29,-4.33,0,*48
1496873081.21,41550,18.25,73942.0,0.47,-4.25,-4.33,0,*4C
1496873082.41,41551,18.25,73942.3,0.47,-4.33,-4.33,0,*4A
1496873083.62,41552,18.25,73942.3,0.47,-4.33,-4.41,0,*4C
1496873084.83,41553,18.25,73942.0,0.47,-4.29,-4.33,0,*43
1496873086.04,41554,18.25,73942.5,0.47,-4.33,-4.41,0,*4A
1496873087.25,41555,18.25,73944.5,0.47,-4.33,-4.33,0,*4E
1496873088.46,41556,18.25,73946.3,0.47,-4.29,-4.33,0,*46
1496873089.64,41557,18.25,73944.3,0.45,-4.33,-4.41,0,*4B
1496873090.85,41558,18.25,73940.3,0.47,-4.33,-4.33,0,*43
1496873092.03,41559,18.25,73944.3,0.45,-4.33,-4.33,0,*40
1496873093.24,41560,18.25,73944.3,0.47,-4.33,-4.33,0,*48
1496873094.45,41561,18.25,73944.3,0.47,-4.29,-4.25,0,*45
1496873095.67,41562,18.25,73942.8,0.47,-4.25,-4.29,0,*46
1496873096.88,41563,18.25,73940.5,0.47,-4.29,-4.29,0,*4B
1496873098.08,41564,18.25,73944.3,0.47,-4.29,-4.33,0,*47
1496873099.29,41565,18.25,73946.8,0.47,-4.33,-4.25,0,*4A
1496873100.51,41566,18.25,73942.8,0.47,-4.33,-4.25,0,*49
1496873101.69,41567,18.25,73942.3,0.45,-4.33,-4.29,0,*46
1496873102.9,41568,18.25,73942.8,0.47,-4.33,-4.33,0,*40
1496873104.11,41569,18.25,73942.8,0.47,-4.33,-4.45,0,*40
1496873105.32,41570,18.25,73942.3,0.47,-4.33,-4.41,0,*4C
1496873106.53,41571,18.25,73946.5,0.47,-4.41,-4.41,0,*48
1496873107.74,41572,18.25,73942.5,0.47,-4.33,-4.41,0,*4E
1496873108.94,41573,18.25,73946.3,0.47,-4.29,-4.33,0,*41
1496873110.13,41574,18.25,73942.0,0.45,-4.29,-4.29,0,*4F
1496873111.34,41575,18.25,73942.0,0.47,-4.33,-4.33,0,*4C
1496873112.54,41576,18.25,73944.8,0.47,-4.33,-4.33,0,*4F
1496873113.75,41577,18.25,73944.5,0.47,-4.33,-4.41,0,*4B
1496873114.96,41578,18.25,73946.3,0.51,-4.29,-4.25,0,*4A
1496873116.17,41579,18.25,73944.5,0.47,-4.33,-4.33,0,*40
1496873117.38,41580,18.25,73942.8,0.47,-4.29,-4.33,0,*4D
1496873118.59,41581,18.25,73946.3,0.47,-4.33,-4.33,0,*47
1496873119.8,41582,18.25,73944.3,0.47,-4.33,-4.29,0,*4F
1496873121.01,41583,18.25,73944.8,0.47,-4.33,-4.29,0,*4E
1496873122.22,41584,18.25,73946.3,0.47,-4.33,-4.29,0,*49
1496873123.43,41585,18.25,73942.5,0.47,-4.29,-4.33,0,*48
1496873124.62,41586,18.25,73940.8,0.45,-4.33,-4.29,0,*49
1496873125.83,41587,18.25,73944.8,0.47,-4.29,-4.29,0,*41
1496873127.04,41588,18.25,73944.5,0.47,-4.33,-4.29,0,*45
1496873128.25,41589,18.25,73944.5,0.47,-4.29,-4.29,0,*4F
1496873129.46,41590,18.25,73944.5,0.47,-4.25,-4.29,0,*4B
1496873130.65,41591,18.25,73946.3,0.45,-4.29,-4.29,0,*44
1496873131.86,41592,18.25,73942.3,0.47,-4.29,-4.29,0,*45
1496873133.07,41593,18.25,73944.5,0.47,-4.25,-4.29,0,*48
1496873134.26,41594,18.25,73944.3,0.45,-4.25,-4.29,0,*4D
1496873135.47,41595,18.25,73944.5,0.47,-4.25,-4.29,0,*4E
1496873136.68,41596,18.25,73942.8,0.47,-4.29,-4.29,0,*41
1496873137.89,41597,18.25,73946.5,0.47,-4.25,-4.25,0,*40
1496873139.1,41598,18.25,73944.5,0.47,-4.29,-4.25,0,*43
1496873140.31,41599,18.25,73946.0,0.47,-4.17,-4.29,0,*43
1496873141.52,41600,18.25,73944.5,0.47,-4.17,-4.25,0,*4C
1496873142.73,41601,18.25,73944.0,0.47,-4.25,-4.25,0,*4C
1496873143.94,41602,18.25,73946.5,0.47,-4.25,-4.25,0,*4F
1496873145.15,41603,18.25,73946.3,0.47,-4.29,-4.25,0,*42
1496873146.34,41604,18.25,73940.5,0.45,-4.25,-4.29,0,*47
1496873147.55,41605,18.25,73942.8,0.47,-4.25,-4.25,0,*48
1496873148.74,41606,18.25,73944.5,0.45,-4.17,-4.25,0,*48
1496873149.95,41607,18.25,73942.8,0.47,-4.25,-4.25,0,*4A
1496873151.16,41608,18.25,73946.3,0.47,-4.25,-4.29,0,*49
1496873152.35,41609,18.25,73942.8,0.45,-4.17,-4.25,0,*47
1496873153.56,41610,18.25,73942.5,0.47,-4.25,-4.25,0,*4C
1496873154.77,41611,18.25,73944.5,0.47,-4.17,-4.29,0,*40
1496873155.98,41612,18.25,73944.5,0.47,-4.17,-4.25,0,*4F
1496873157.19,41613,18.25,73944.5,0.47,-4.17,-4.25,0,*4E
1496873158.39,41614,18.25,73944.8,0.47,-4.17,-4.17,0,*48
1496873159.6,41615,18.25,73946.3,0.47,-4.17,-4.25,0,*48
1496873160.81,41616,18.25,73944.3,0.47,-4.25,-4.25,0,*4A
1496873162.0,41617,18.25,73946.8,0.45,-4.25,-4.25,0,*49
1496873163.18,41618,18.25,73944.5,0.45,-4.13,-4.29,0,*4F
1496873164.39,41619,18.25,73944.0,0.47,-4.17,-4.25,0,*44
1496873165.6,41620,18.25,73944.8,0.47,-4.25,-4.25,0,*4F
1496873166.78,41621,18.25,73940.8,0.45,-4.13,-4.17,0,*48
1496873167.96,41622,18.25,73950.3,0.45,-4.17,-4.17,0,*4F
1496873169.17,41623,18.25,73944.3,0.47,-4.25,-4.13,0,*49
1496873170.36,41624,18.25,73946.0,0.45,-4.13,-4.25,0,*4C
1496873171.56,41625,18.25,73944.8,0.47,-4.17,-4.17,0,*4A
1496873172.77,41626,18.25,73946.3,0.47,-4.17,-4.25,0,*48
1496873173.98,41627,18.25,73944.3,0.47,-4.13,-4.25,0,*4D
1496873175.19,41628,18.25,73944.0,0.47,-4.13,-4.25,0,*42
1496873176.39,41629,18.25,73946.5,0.47,-4.17,-4.25,0,*47
1496873177.6,41630,18.25,73946.5,0.47,-4.17,-4.29,0,*43
1496873178.81,41631,18.25,73944.3,0.47,-4.17,-4.25,0,*4E
1496873180.02,41632,18.25,73944.0,0.47,-4.17,-4.25,0,*4D
1496873181.23,41633,18.25,73948.8,0.51,-4.13,-4.25,0,*4F
1496873182.44,41634,18.25,73944.8,0.51,-4.13,-4.25,0,*48
1496873183.65,41635,18.25,73944.3,0.51,-4.21,-4.25,0,*48
1496873184.86,41636,18.25,73944.0,0.51,-4.13,-4.25,0,*4A
1496873186.07,41637,18.25,73944.5,0.47,-4.17,-4.29,0,*44
1496873187.28,41638,18.25,73944.3,0.47,-4.25,-4.29,0,*4A
1496873188.49,41639,18.25,73944.3,0.47,-4.17,-4.25,0,*46
1496873189.7,41640,18.25,73944.3,0.47,-4.17,-4.25,0,*48
1496873190.91,41641,18.25,73948.3,0.47,-4.17,-4.25,0,*49
1496873192.11,41642,18.25,73946.3,0.47,-4.17,-4.25,0,*4A
1496873193.32,41643,18.25,73944.5,0.47,-4.17,-4.25,0,*4B
1496873194.54,41644,18.25,73946.3,0.47,-4.25,-4.25,0,*4D
1496873195.75,41645,18.25,73946.0,0.47,-4.25,-4.25,0,*4C
1496873196.96,41646,18.25,73944.3,0.47,-4.25,-4.25,0,*4F
1496873198.17,41647,18.25,73944.3,0.47,-4.17,-4.25,0,*4F
1496873199.38,41648,18.25,73946.5,0.47,-4.25,-4.29,0,*4D
1496873200.59,41649,18.25,73944.8,0.47,-4.17,-4.29,0,*4D
1496873201.8,41650,18.25,73950.5,0.47,-4.25,-4.29,0,*44
1496873203.02,41651,18.25,73944.8,0.47,-4.25,-4.25,0,*49
1496873204.22,41652,18.25,73944.5,0.47,-4.17,-4.25,0,*4B
1496873205.43,41653,18.25,73946.0,0.47,-4.17,-4.25,0,*4A
1496873206.64,41654,18.25,73946.5,0.47,-4.17,-4.25,0,*4D
1496873207.85,41655,18.25,73946.8,0.51,-4.13,-4.21,0,*4B
1496873209.06,41656,18.25,73946.5,0.47,-4.17,-4.25,0,*4F
1496873210.26,41657,18.25,73944.0,0.47,-4.17,-4.17,0,*4F
1496873211.47,41658,18.19,73942.5,0.47,-4.17,-4.25,0,*41
1496873212.68,41659,18.25,73944.0,0.47,-4.17,-4.25,0,*40
1496873213.89,41660,18.25,73948.8,0.47,-4.25,-4.29,0,*47
1496873215.1,41661,18.25,73946.8,0.47,-4.25,-4.25,0,*4A
1496873216.32,41662,18.25,73946.3,0.51,-4.21,-4.21,0,*4E
1496873217.53,41663,18.25,73944.8,0.51,-4.13,-4.25,0,*4A
1496873218.74,41664,18.25,73944.3,0.51,-4.13,-4.13,0,*48
1496873219.92,41665,18.25,73946.8,0.45,-4.25,-4.17,0,*4D
1496873221.1,41666,18.25,73946.5,0.45,-4.17,-4.17,0,*4F
1496873222.3,41667,18.25,73944.8,0.47,-4.13,-4.17,0,*48
1496873223.5,41668,18.25,73944.5,0.47,-4.17,-4.17,0,*43
1496873224.71,41669,18.25,73946.3,0.47,-4.17,-4.13,0,*46
1496873225.91,41670,18.25,73944.3,0.47,-4.17,-4.17,0,*4A
1496873227.12,41671,18.25,73944.3,0.51,-4.09,-4.13,0,*47
1496873228.33,41672,18.25,73946.0,0.51,-4.09,-4.13,0,*44
1496873229.54,41673,18.25,73944.3,0.51,-4.13,-4.13,0,*4E
1496873230.74,41674,18.25,73944.3,0.51,-4.13,-4.13,0,*49
1496873231.96,41675,18.25,73950.0,0.51,-4.21,-4.13,0,*49
1496873233.17,41676,18.25,73946.5,0.51,-4.13,-4.21,0,*4A
1496873234.38,41677,18.25,73950.0,0.51,-4.09,-4.21,0,*40
1496873235.57,41678,18.25,73946.3,0.53,-4.21,-4.21,0,*47
1496873236.79,41679,18.25,73944.8,0.51,-4.21,-4.21,0,*44
1496873238.0,41680,18.25,73944.0,0.51,-4.21,-4.13,0,*43
1496873239.21,41681,18.25,73948.0,0.51,-4.13,-4.13,0,*43
1496873240.42,41682,18.25,73946.0,0.51,-4.13,-4.13,0,*40
1496873241.62,41683,18.25,73944.8,0.51,-4.13,-4.13,0,*41
1496873242.83,41684,18.25,73944.5,0.51,-4.13,-4.13,0,*46
1496873244.04,41685,18.25,73948.3,0.51,-4.13,-4.13,0,*47
1496873245.22,41686,18.25,73946.5,0.53,-4.13,-4.13,0,*46
1496873246.43,41687,18.25,73946.0,0.51,-4.21,-4.13,0,*44
1496873247.64,41688,18.25,73944.0,0.51,-4.13,-4.13,0,*4A
1496873248.85,41689,18.25,73946.5,0.51,-4.13,-4.13,0,*4B
1496873250.06,41690,18.25,73944.3,0.51,-4.21,-4.13,0,*42
1496873251.28,41691,18.25,73944.0,0.51,-4.21,-4.21,0,*42
1496873252.49,41692,18.25,73944.8,0.51,-4.21,-4.09,0,*4B
1496873253.7,41693,18.25,73946.3,0.51,-4.13,-4.21,0,*41
1496873254.91,41694,18.25,73946.0,0.51,-4.13,-4.13,0,*47
1496873256.13,41695,18.25,73946.5,0.51,-4.21,-4.13,0,*47
1496873257.33,41696,18.25,73944.5,0.51,-4.13,-4.13,0,*45
1496873258.54,41697,18.25,73946.3,0.51,-4.13,-4.13,0,*44
1496873259.75,41698,18.25,73946.8,0.51,-4.25,-4.13,0,*4E
1496873260.96,41699,18.25,73944.0,0.51,-4.13,-4.13,0,*4A
1496873262.17,41700,18.25,73944.5,0.51,-4.13,-4.13,0,*4B
1496873263.35,41701,18.25,73948.8,0.53,-4.13,-4.13,0,*48
1496873264.55,41702,18.25,73944.3,0.51,-4.13,-4.13,0,*49
1496873265.76,41703,18.25,73944.0,0.51,-4.13,-4.13,0,*48
1496873266.97,41704,18.25,73948.0,0.51,-4.13,-4.09,0,*44
1496873268.17,41705,18.25,73944.3,0.51,-4.13,-4.13,0,*4E
1496873269.39,41706,18.25,73944.0,0.51,-4.21,-4.13,0,*4C
1496873270.58,41707,18.25,73944.0,0.53,-4.21,-4.21,0,*4E
1496873271.76,41708,18.25,73944.0,0.53,-4.13,-4.13,0,*41
1496873272.94,41709,18.25,73946.5,0.53,-4.21,-4.09,0,*4A
1496873274.15,41710,18.25,73946.3,0.51,-4.21,-4.13,0,*4B
1496873275.36,41711,18.25,73942.3,0.51,-4.13,-4.13,0,*4B
1496873276.54,41712,18.25,73944.8,0.53,-4.13,-4.13,0,*4A
1496873277.75,41713,18.25,73946.3,0.51,-4.13,-4.13,0,*49
1496873278.96,41714,18.25,73946.0,0.51,-4.21,-4.13,0,*4F
1496873280.17,41715,18.25,73944.8,0.51,-4.13,-4.13,0,*4F
1496873281.38,41716,18.25,73944.3,0.51,-4.13,-4.13,0,*4C
1496873282.58,41717,18.25,73948.3,0.51,-4.13,-4.13,0,*4D
1496873283.79,41718,18.25,73944.3,0.47,-4.17,-4.17,0,*45
1496873285.0,41719,18.25,73946.5,0.51,-4.21,-4.13,0,*42
1496873286.2,41720,18.25,73946.0,0.51,-4.13,-4.09,0,*42
1496873287.39,41721,18.25,73940.5,0.53,-4.21,-4.13,0,*4B
1496873288.6,41722,18.25,73946.5,0.51,-4.21,-4.13,0,*4A
1496873289.82,41723,18.25,73946.0,0.51,-4.21,-4.13,0,*4B
1496873291.03,41724,18.25,73944.0,0.51,-4.13,-4.21,0,*4C
1496873292.24,41725,18.25,73944.8,0.51,-4.21,-4.13,0,*4D
1496873293.45,41726,18.25,73942.3,0.51,-4.13,-4.13,0,*4F
1496873294.66,41727,18.25,73944.3,0.51,-4.21,-4.09,0,*44
1496873295.88,41728,18.25,73946.5,0.51,-4.21,-4.13,0,*40
1496873297.09,41729,18.25,73946.5,0.51,-4.21,-4.09,0,*4A
1496873298.3,41730,18.25,73946.8,0.51,-4.09,-4.13,0,*43
1496873299.5,41731,18.25,73944.3,0.51,-4.13,-4.09,0,*42
1496873300.69,41732,18.25,73946.5,0.53,-4.21,-4.21,0,*48
1496873301.9,41733,18.25,73942.3,0.51,-4.13,-4.13,0,*4B
1496873303.11,41734,18.19,73942.3,0.51,-4.13,-4.13,0,*4C
1496873304.32,41735,18.25,73946.0,0.51,-4.13,-4.21,0,*4C
1496873305.5,41736,18.25,73942.3,0.53,-4.21,-4.13,0,*4D
1496873306.71,41737,18.19,73942.8,0.51,-4.13,-4.13,0,*4F